Lambertville, MI

6:44 AM EDT on July 26, 2017 (GMT -0400)
Lambertville

Weather History for KDUH - July, 2013

Change the Weather History Date:

Monday, July 1, 2013

  Actual Average (KTOL) Record (KTOL)
Temperature  
Mean Temperature 64 °F -  
Max Temperature 68 °F 81 °F 98 °F (1931)
Min Temperature 60 °F 59 °F 40 °F (1988)
Degree Days  
Heating Degree Days 1    
Growing Degree Days 14 (Base 50)    
Moisture  
Dew Point 54 °F    
Average Humidity 76    
Maximum Humidity 94    
Minimum Humidity 55    
Precipitation  
Precipitation 0.00 in - - ()
Sea Level Pressure  
Sea Level Pressure 29.98 in    
Wind  
Wind Speed 6 mph (NNE)    
Max Wind Speed 15 mph    
Max Gust Speed 26 mph    
Visibility 9 miles    
Events Rain    
Averages and records for this station are not official NWS values.
T = Trace of Precipitation, MM = Missing Value Source: NWS Daily Summary

Daily Weather History Graph

Daily Weather History Graph

Search for Another Location

Airport or City:

Trip Planner

Search our weather history database for the weather conditions in past years. The results will help you decide how hot, cold, wet, or windy it might be!

Date:

Astronomy

Jul. 01, 2013 Rise Set
Actual Time 6:03 AM EDT 9:13 PM EDT
Civil Twilight 5:29 AM EDT 9:46 PM EDT
Nautical Twilight 4:46 AM EDT 10:30 PM EDT
Astronomical Twilight 3:53 AM EDT 11:22 PM EDT
Moon 1:36 AM EDT (7/1) 3:24 PM EDT (7/1)
Length of Visible Light 16h 17m
Length of Day
15h 09m
Waning Crescent, 35% of the Moon is Illuminated
Jul 1
Waning Crescent
Jul 8
New
Jul 15
First Quarter
Jul 22
Full
Jul 29
Last Quarter

Hourly Weather History & Observations

Time (EDT) Temp. Dew Point Humidity Pressure Visibility Wind Dir Wind Speed Gust Speed Precip Events Conditions
12:15 AM 68.0 °F 55.4 °F 64% 29.93 in 10.0 mi NE 3.5 mph - N/A   Mostly Cloudy
12:35 AM 66.2 °F 57.2 °F 73% 29.94 in 10.0 mi Calm Calm - N/A   Scattered Clouds
12:55 AM 64.4 °F 57.2 °F 77% 29.94 in 10.0 mi Calm Calm - N/A   Scattered Clouds
1:15 AM 64.4 °F 57.2 °F 77% 29.94 in 10.0 mi Calm Calm - N/A   Clear
1:35 AM 64.4 °F 53.6 °F 68% 29.93 in 10.0 mi North 3.5 mph - N/A   Clear
1:55 AM 62.6 °F 50.0 °F 63% 29.93 in 10.0 mi NNE 5.8 mph - N/A   Clear
2:15 AM 62.6 °F 50.0 °F 63% 29.93 in 10.0 mi NNE 4.6 mph - N/A   Clear
2:35 AM 62.6 °F 48.2 °F 59% 29.93 in 10.0 mi North 5.8 mph - N/A   Clear
2:55 AM 62.6 °F 46.4 °F 55% 29.93 in 10.0 mi NNE 4.6 mph - N/A   Clear
3:15 AM 60.8 °F 48.2 °F 63% 29.93 in 10.0 mi North 3.5 mph - N/A   Clear
3:35 AM 60.8 °F 48.2 °F 63% 29.93 in 10.0 mi NNE 6.9 mph - N/A   Clear
3:55 AM 60.8 °F 48.2 °F 63% 29.93 in 10.0 mi North 4.6 mph - N/A   Clear
4:15 AM 60.8 °F 50.0 °F 68% 29.93 in 10.0 mi North 4.6 mph - N/A   Scattered Clouds
4:35 AM 60.8 °F 50.0 °F 68% 29.93 in 10.0 mi North 5.8 mph - N/A   Scattered Clouds
4:55 AM 60.8 °F 50.0 °F 68% 29.93 in 10.0 mi NNE 5.8 mph - N/A   Clear
5:15 AM 60.8 °F 50.0 °F 68% 29.94 in 10.0 mi NNE 6.9 mph - N/A   Clear
5:35 AM 60.8 °F 51.8 °F 72% 29.94 in 10.0 mi NNE 5.8 mph - N/A   Clear
5:55 AM 60.8 °F 51.8 °F 72% 29.94 in 10.0 mi North 6.9 mph - N/A   Clear
6:15 AM 60.8 °F 51.8 °F 72% 29.95 in 10.0 mi NNE 4.6 mph - N/A   Scattered Clouds
6:35 AM 60.8 °F 51.8 °F 72% 29.95 in 10.0 mi NNE 6.9 mph - N/A   Scattered Clouds
6:55 AM 60.8 °F 51.8 °F 72% 29.95 in 10.0 mi NNE 6.9 mph - N/A   Clear
7:15 AM 60.8 °F 51.8 °F 72% 29.95 in 10.0 mi NNE 5.8 mph - N/A   Clear
7:35 AM 60.8 °F 51.8 °F 72% 29.96 in 10.0 mi North 5.8 mph - N/A   Clear
7:55 AM 62.6 °F 53.6 °F 72% 29.96 in 10.0 mi NE 4.6 mph - N/A   Clear
8:15 AM 62.6 °F 53.6 °F 72% 29.96 in 10.0 mi NNE 5.8 mph - N/A   Clear
8:35 AM 62.6 °F 53.6 °F 72% 29.96 in 10.0 mi NNE 4.6 mph - N/A   Clear
8:55 AM 62.6 °F 53.6 °F 72% 29.97 in 10.0 mi North 4.6 mph - N/A   Clear
9:15 AM 62.6 °F 53.6 °F 72% 29.97 in 10.0 mi NNE 6.9 mph - N/A   Scattered Clouds
9:35 AM 62.6 °F 53.6 °F 72% 29.96 in 10.0 mi NE 9.2 mph - N/A   Scattered Clouds
9:55 AM 64.4 °F 53.6 °F 68% 29.96 in 10.0 mi NE 5.8 mph - N/A   Mostly Cloudy
10:15 AM 64.4 °F 53.6 °F 68% 29.96 in 10.0 mi NE 6.9 mph - N/A   Overcast
10:35 AM 64.4 °F 55.4 °F 73% 29.96 in 10.0 mi North 9.2 mph - N/A   Scattered Clouds
10:55 AM 64.4 °F 55.4 °F 73% 29.97 in 10.0 mi North 5.8 mph - N/A   Clear
11:15 AM 66.2 °F 55.4 °F 68% 29.98 in 10.0 mi NNE 4.6 mph - N/A   Mostly Cloudy
11:35 AM 66.2 °F 55.4 °F 68% 29.99 in 10.0 mi NNE 5.8 mph - N/A   Overcast
11:55 AM 64.4 °F 55.4 °F 73% 29.99 in 7.0 mi NE 5.8 mph - N/A   Drizzle
12:15 PM 64.4 °F 55.4 °F 73% 30.00 in 10.0 mi NE 5.8 mph - N/A   Light Drizzle
12:35 PM 62.6 °F 57.2 °F 82% 30.01 in 7.0 mi NE 6.9 mph - N/A Rain Light Rain
12:55 PM 62.6 °F 59.0 °F 88% 30.02 in 3.0 mi NE 4.6 mph - N/A Rain Heavy Rain
1:15 PM 62.6 °F 59.0 °F 88% 30.02 in 3.0 mi NE 5.8 mph - N/A Rain Rain
1:35 PM 60.8 °F 59.0 °F 94% 30.02 in 3.0 mi NE 8.1 mph - N/A Rain Rain
1:55 PM 60.8 °F 59.0 °F 94% 30.02 in 3.0 mi NNE 10.4 mph - N/A Rain Heavy Rain
2:15 PM 60.8 °F 59.0 °F 94% 30.01 in 3.0 mi NE 12.7 mph 19.6 mph N/A Rain Heavy Rain
2:35 PM 60.8 °F 59.0 °F 94% 30.01 in 4.0 mi NE 11.5 mph 19.6 mph N/A Rain Heavy Rain
2:55 PM 62.6 °F 59.0 °F 88% 30.01 in 3.0 mi NE 13.8 mph 20.7 mph N/A Rain Heavy Rain
3:15 PM 62.6 °F 59.0 °F 88% 30.00 in 3.0 mi NNE 13.8 mph 21.9 mph N/A Rain Rain
3:35 PM 62.6 °F 59.0 °F 88% 29.99 in 5.0 mi NE 11.5 mph 21.9 mph N/A Rain Light Rain
3:55 PM 60.8 °F 57.2 °F 88% 29.99 in 4.0 mi NE 13.8 mph 26.5 mph N/A Rain Rain
4:15 PM 60.8 °F 57.2 °F 88% 30.00 in 7.0 mi NE 15.0 mph 21.9 mph N/A   Mostly Cloudy
4:35 PM 62.6 °F 57.2 °F 82% 30.00 in 10.0 mi NNE 11.5 mph 21.9 mph N/A   Mostly Cloudy
4:55 PM 62.6 °F 57.2 °F 82% 30.00 in 10.0 mi NNE 9.2 mph 19.6 mph N/A   Overcast
5:15 PM 62.6 °F 55.4 °F 77% 30.01 in 10.0 mi NNE 11.5 mph 18.4 mph N/A   Overcast
5:35 PM 62.6 °F 55.4 °F 77% 30.02 in 10.0 mi NNE 10.4 mph - N/A   Overcast
5:55 PM 62.6 °F 55.4 °F 77% 30.03 in 10.0 mi NNE 8.1 mph - N/A   Overcast
6:15 PM 62.6 °F 55.4 °F 77% 30.02 in 10.0 mi NNE 9.2 mph - N/A   Overcast
6:35 PM 62.6 °F 55.4 °F 77% 30.02 in 10.0 mi NE 6.9 mph - N/A   Overcast
6:55 PM 62.6 °F 55.4 °F 77% 30.02 in 10.0 mi NNE 12.7 mph 19.6 mph N/A   Overcast
7:15 PM 62.6 °F 55.4 °F 77% 30.03 in 10.0 mi NNE 9.2 mph - N/A   Overcast
7:35 PM 62.6 °F 55.4 °F 77% 30.02 in 10.0 mi NE 8.1 mph 18.4 mph N/A   Overcast
7:55 PM 62.6 °F 55.4 °F 77% 30.03 in 10.0 mi NE 10.4 mph 18.4 mph N/A Rain Rain
8:15 PM 60.8 °F 57.2 °F 88% 30.03 in 7.0 mi NE 8.1 mph 16.1 mph N/A Rain Light Rain
8:35 PM 60.8 °F 57.2 °F 88% 30.03 in 7.0 mi NNE 11.5 mph 17.3 mph N/A   Overcast
8:55 PM 60.8 °F 55.4 °F 82% 30.03 in 10.0 mi NNE 9.2 mph - N/A   Overcast
9:15 PM 60.8 °F 55.4 °F 82% 30.04 in 10.0 mi NNE 6.9 mph - N/A   Overcast
9:35 PM 60.8 °F 55.4 °F 82% 30.03 in 10.0 mi NNE 10.4 mph 17.3 mph N/A   Overcast
9:55 PM 60.8 °F 55.4 °F 82% 30.04 in 10.0 mi NNE 8.1 mph - N/A   Overcast
10:15 PM 60.8 °F 53.6 °F 77% 30.04 in 10.0 mi North 6.9 mph - N/A   Overcast
10:35 PM 60.8 °F 53.6 °F 77% 30.04 in 10.0 mi North 8.1 mph - N/A   Overcast
10:55 PM 60.8 °F 53.6 °F 77% 30.05 in 10.0 mi North 4.6 mph - N/A   Overcast
11:15 PM 60.8 °F 55.4 °F 82% 30.03 in 10.0 mi North 4.6 mph - N/A   Overcast
11:35 PM 60.8 °F 55.4 °F 82% 30.01 in 10.0 mi NNE 8.1 mph - N/A   Overcast
11:55 PM 60.8 °F 55.4 °F 82% 30.01 in 10.0 mi North 6.9 mph - N/A   Overcast